Flag for Kazakhstan Weather past 2 weeks in Almaty, Kazakhstan

Now
37 °F

Passing clouds.


Feels Like: 37 °F
Forecast: 26 / 52 °F
Wind: 1 mph from Southwest

Location: Almaty Airport

Current Time: Mar 5, 2015 at 10:14:20 PM

Latest Report: Mar 5, 2015 at 9:30 PM


Visibility: 0 mi

Pressure: 30.07 "Hg

Humidity: 65%

Dew point: 27 °F

Location of AlmatyLocation

Historic Weather in Almaty — Graph

°F

Almaty temperature yesterday

Maximum temperature yesterday: 55 °F (at 2:30 PM)
Minimum temperature yesterday: 27 °F (at 7:00 AM)
Average temperature yesterday: 40 °F

Past Weeks' High & Low Weather Summary

 TemperatureHumidityPressure
High55 °F (Mar 4, 2:30 PM)93% (Feb 19, 4:00 AM)30.48 "Hg (Feb 19, 4:00 AM)
Low21 °F (Feb 27, 6:30 AM)26% (Mar 4, 3:30 PM)29.89 "Hg (Mar 2, 3:00 PM)
Average34 °F72%30.15 "Hg
* Reported Feb 18 8:00 PM — Mar 5 8:00 PM, Almaty, Weather by CustomWeather, © 2015

Note: Actual official high and low records may vary slightly from our data, if they occured in-between our weather recording intervals... More about our weather records

Advertising

Almaty weather history for previous 24 hours

 ConditionsComfort  
Time TempWeatherWind HumidityBarometerVisibility
8:00 PM
Thu, Mar 5
43 °FPassing clouds.1 mph61%30.07 "Hg1 mi
7:30 PM45 °FPassing clouds.3 mph57%30.07 "Hg1 mi
7:00 PM45 °FPassing clouds.6 mph57%30.07 "HgN/A
6:30 PM50 °FPartly sunny.6 mph40%30.04 "HgN/A
6:00 PM52 °FPartly sunny.6 mph32%30.04 "HgN/A
5:30 PM52 °FPartly sunny.6 mph32%30.04 "HgN/A
5:00 PM54 °FBroken clouds.6 mph30%30.04 "HgN/A
4:30 PM54 °FBroken clouds.6 mph30%30.04 "HgN/A
4:00 PM54 °FBroken clouds.6 mph33%30.04 "HgN/A
3:30 PM54 °FBroken clouds.3 mph33%30.04 "HgN/A
3:00 PM54 °FScattered clouds.3 mph35%30.04 "HgN/A
2:30 PM54 °FPartly sunny.3 mph33%30.04 "HgN/A
2:00 PM54 °FPartly sunny.3 mph33%30.04 "Hg3 mi
1:30 PM52 °FPartly sunny.3 mph35%30.04 "Hg3 mi
1:00 PM52 °FPartly sunny.3 mph38%30.07 "Hg3 mi
12:30 PM50 °FPartly sunny.3 mph37%30.07 "Hg3 mi
12:00 PM50 °FPartly sunny.1 mph40%30.07 "Hg3 mi
11:30 AM46 °FScattered clouds.1 mph50%30.07 "Hg3 mi
11:00 AM45 °FScattered clouds.1 mph53%30.07 "Hg2 mi
10:30 AM43 °FScattered clouds.1 mph53%30.07 "Hg2 mi
9:30 AM37 °FClear.1 mph70%30.07 "Hg1 mi
9:00 AM37 °FFog.No wind70%30.07 "Hg1 mi
8:00 AM28 °FIce fog.3 mph86%30.07 "Hg1 mi
7:30 AM27 °FIce fog.3 mph86%30.04 "Hg1 mi
7:00 AM28 °FIce fog.1 mph80%30.04 "Hg1 mi
6:30 AM28 °FIce fog.3 mph80%30.04 "Hg1 mi
6:00 AM28 °FIce fog.3 mph80%30.04 "Hg1 mi
5:30 AM30 °FIce fog.3 mph80%30.04 "Hg1 mi
5:00 AM30 °FIce fog.3 mph86%30.01 "Hg1 mi
4:30 AM30 °FIce fog.6 mph86%30.01 "Hg1 mi
3:00 AM30 °FIce fog.1 mph80%30.01 "Hg1 mi
2:30 AM32 °FIce fog.1 mph80%30.01 "Hg1 mi
2:00 AM32 °FIce fog.1 mph80%30.01 "Hg1 mi
1:30 AM34 °FFog.No wind75%30.01 "Hg1 mi
1:00 AM34 °FFog.3 mph75%30.01 "Hg1 mi
12:30 AM34 °FFog.3 mph75%30.01 "Hg1 mi
12:00 AM34 °FFog.3 mph75%30.01 "Hg1 mi
11:30 PM
Wed, Mar 4
36 °FFog.No wind75%30.01 "Hg1 mi
11:00 PM37 °FPassing clouds.No wind70%30.01 "Hg1 mi
10:30 PM37 °FPassing clouds.3 mph65%30.01 "Hg2 mi
10:00 PM41 °FPassing clouds.1 mph61%30.01 "Hg1 mi
Weather by CustomWeather, © 2015

See weather overviewHow to use our weather pages